Terminal Aerodrome Forecast
Issued by NWS St Louis, MO

Home | Current Version | Previous Version | Text Only | Print | Product List | Glossary On
Versions: 1 2 3 4 5 6 7 8 9 10 11 12 13 14 15 16 17 18 19 20 21 22 23 24 25 26 27 28 29 30 31 32 33 34
000
FTUS43 KLSX 080355 AAB
TAFSTL
TAF AMD
KSTL 080355Z 0804/0906 VRB03KT P6SM -RA SCT015 OVC025
      TEMPO 0804/0808 2SM -RA BR SCT007 BKN015
     FM081200 09006KT 5SM -SHRA BR OVC010
     FM081800 09014KT 3SM -SHRA BR VCTS OVC015CB
     FM090300 20011KT P6SM VCTS SCT007CB OVC015=

USA.gov is the U.S. government's official web portal to all federal, state and local government web resources and services.